Home   Weather   Tegucigalpa   Past weeks

Flag for Honduras Past Weather in Tegucigalpa, Honduras — Yesterday and Last 2 Weeks

Now
70 °F

Passing clouds.


Feels Like: 70 °F
Forecast: 66 / 84 °F
Wind: 8 mph from Northeast

Location: Tegucigalpa Airport

Current Time: Aug 20, 2017 at 2:14:05 am

Latest Report: Aug 20, 2017 at 1:00 am


Visibility: N/A

Pressure: 30.07 "Hg (26.60 "Hg at 1054m altitude)

Humidity: 88%

Dew Point: 66 °F

Location of TegucigalpaLocation

Past Weather in Tegucigalpa — Graph

°F

Tegucigalpa Temperature Yesterday

Maximum temperature yesterday: 86 °F (at 1:00 pm)
Minimum temperature yesterday: 63 °F (at 1:00 am)
Average temperature yesterday: 75 °F

High & Low Weather Summary for the Past Weeks

 TemperatureHumidityPressure
High88 °F (Aug 9, 1:00 pm)100% (Aug 5, 3:00 am)30.18 "Hg (Aug 5, 3:00 am)
Low61 °F (Aug 12, 6:00 am)33% (Aug 18, 4:00 pm)29.95 "Hg (Aug 19, 5:00 pm)
Average73 °F76%30.08 "Hg
* Reported Aug 5 12:00 am — Aug 20 12:00 am, Tegucigalpa. Weather by CustomWeather, © 2017

Note: Actual official high and low records may vary slightly from our data, if they occured in-between our weather recording intervals... More about our weather records

Advertising

Tegucigalpa Weather History for the Previous 24 Hours

Scroll right to see more
 ConditionsComfort  
Time TempWeatherWind HumidityBarometerVisibility
12:00 am
Sun, Aug 20
70 °FPassing clouds.6 mph88%30.07 "HgN/A
11:00 pm
Sat, Aug 19
70 °FPassing clouds.8 mph88%30.09 "HgN/A
10:00 pm70 °FPassing clouds.9 mph88%30.07 "HgN/A
9:00 pm72 °FPassing clouds.7 mph83%30.07 "HgN/A
8:00 pm72 °FPassing clouds.12 mph83%30.04 "HgN/A
7:00 pm77 °FPassing clouds.12 mph61%30.01 "HgN/A
6:00 pm82 °FBroken clouds.9 mph48%29.98 "HgN/A
5:00 pm84 °FBroken clouds.9 mph45%29.95 "HgN/A
4:00 pm84 °FScattered clouds.7 mph48%29.98 "HgN/A
3:00 pm84 °FBroken clouds.9 mph45%29.98 "HgN/A
2:00 pm86 °FBroken clouds.14 mph43%30.01 "HgN/A
1:00 pm86 °FBroken clouds.12 mph43%30.04 "HgN/A
12:00 pm84 °FBroken clouds.16 mph45%30.04 "HgN/A
11:00 am84 °FBroken clouds.18 mph51%30.07 "HgN/A
10:00 am81 °FBroken clouds.14 mph54%30.09 "HgN/A
9:00 am77 °FBroken clouds.16 mph65%30.09 "HgN/A
8:00 am73 °FBroken clouds.14 mph74%30.09 "Hg5 mi
7:00 am68 °FScattered showers. Partly sunny.3 mph94%30.07 "Hg4 mi
6:00 am68 °FScattered showers. Partly sunny.5 mph94%30.07 "Hg4 mi
5:00 am68 °FPassing clouds.No wind94%30.07 "Hg5 mi
4:00 am64 °FPassing clouds.No wind94%30.07 "HgN/A
3:00 am64 °FPassing clouds.No wind88%30.07 "HgN/A
2:00 am63 °FPassing clouds.2 mph88%30.09 "HgN/A
Weather by CustomWeather, © 2017

See weather overviewHow to use our weather pages